| time (UTC) | temp C | wind direction | speed KPH | gust KPH | rain 1hr cm | rain 24hr cm | rain mn cm | humidity % | barometer mb |
| 20260507093217 | 9 | 113 | 4.8 | 12.9 | 0.00 | 0.00 | 0.00 | 68 | 1014.2 |
| 20260507092217 | 9 | 113 | 8.0 | 19.3 | 0.00 | 0.00 | 0.00 | 67 | 1014.0 |
| 20260507091217 | 9 | 45 | 6.4 | 8.0 | 0.00 | 0.00 | 0.00 | 67 | 1014.1 |
| 20260507090217 | 8 | 315 | 4.8 | 12.9 | 0.00 | 0.00 | 0.00 | 67 | 1014.0 |
| 20260507085217 | 9 | 45 | 6.4 | 16.1 | 0.00 | 0.00 | 0.00 | 66 | 1014.0 |
| 20260507084217 | 8 | 113 | 3.2 | 6.4 | 0.00 | 0.00 | 0.00 | 67 | 1014.1 |
| 20260507083216 | 8 | 90 | 3.2 | 8.0 | 0.00 | 0.00 | 0.00 | 68 | 1014.3 |
| 20260507082217 | 8 | 23 | 9.7 | 24.1 | 0.00 | 0.00 | 0.00 | 67 | 1014.4 |
| 20260507081217 | 8 | 0.0 | 1.6 | 0.00 | 0.00 | 0.00 | 67 | 1014.3 | |
| 20260507080217 | 8 | 248 | 3.2 | 6.4 | 0.00 | 0.00 | 0.00 | 69 | 1014.1 |
| 20260507075216 | 8 | 68 | 3.2 | 4.8 | 0.00 | 0.00 | 0.00 | 69 | 1014.1 |
| 20260507074216 | 7 | 270 | 3.2 | 6.4 | 0.00 | 0.00 | 0.00 | 69 | 1014.2 |
| 20260507073217 | 7 | 0.0 | 3.2 | 0.00 | 0.00 | 0.00 | 70 | 1014.2 | |
| 20260507072216 | 7 | 248 | 1.6 | 3.2 | 0.00 | 0.00 | 0.00 | 70 | 1014.1 |
| 20260507071216 | 7 | 23 | 1.6 | 4.8 | 0.00 | 0.00 | 0.00 | 70 | 1014.3 |
| 20260507070216 | 7 | 135 | 1.6 | 4.8 | 0.00 | 0.00 | 0.00 | 70 | 1014.4 |
| 20260507065217 | 7 | 0.0 | 3.2 | 0.00 | 0.00 | 0.00 | 68 | 1014.3 | |
| 20260507064217 | 7 | 45 | 1.6 | 3.2 | 0.00 | 0.00 | 0.00 | 68 | 1014.2 |
| 20260507063217 | 7 | 23 | 1.6 | 3.2 | 0.00 | 0.00 | 0.00 | 68 | 1014.2 |
| 20260507062216 | 7 | 0.0 | 1.6 | 0.00 | 0.00 | 0.00 | 68 | 1014.4 | |
| 20260507061217 | 7 | 0.0 | 1.6 | 0.00 | 0.00 | 0.00 | 69 | 1014.3 | |
| 20260507060216 | 7 | 0 | 1.6 | 6.4 | 0.00 | 0.00 | 0.00 | 69 | 1014.1 |
| 20260507055216 | 7 | 45 | 1.6 | 3.2 | 0.00 | 0.00 | 0.00 | 69 | 1014.2 |
| 20260507054216 | 7 | 113 | 1.6 | 4.8 | 0.00 | 0.00 | 0.00 | 70 | 1014.2 |
| 20260507053216 | 7 | 0 | 1.6 | 3.2 | 0.00 | 0.00 | 0.00 | 70 | 1014.1 |
| 20260507052216 | 6 | 0.0 | 1.6 | 0.00 | 0.00 | 0.00 | 70 | 1014.2 | |
| 20260507051216 | 6 | 0.0 | 1.6 | 0.00 | 0.00 | 0.00 | 71 | 1014.2 | |
| 20260507050216 | 6 | 293 | 1.6 | 3.2 | 0.00 | 0.00 | 0.00 | 71 | 1014.2 |
| 20260507045216 | 6 | 203 | 1.6 | 3.2 | 0.00 | 0.00 | 0.00 | 72 | 1014.3 |
| 20260507044216 | 6 | 293 | 1.6 | 3.2 | 0.00 | 0.00 | 0.00 | 72 | 1014.3 |
| 20260507043216 | 6 | 0.0 | 1.6 | 0.00 | 0.00 | 0.00 | 73 | 1014.2 | |
| 20260507042216 | 6 | 0.0 | 3.2 | 0.00 | 0.00 | 0.00 | 72 | 1014.3 | |
| 20260507041236 | 5 | 203 | 1.6 | 3.2 | 0.00 | 0.00 | 0.00 | 73 | 1014.3 |
| 20260507040316 | 6 | 0.0 | 1.6 | 0.00 | 0.00 | 0.00 | 73 | 1014.4 | |
| 20260507035216 | 5 | 0.0 | 1.6 | 0.00 | 0.00 | 0.00 | 73 | 1014.4 | |
| 20260507034216 | 5 | 113 | 1.6 | 3.2 | 0.00 | 0.00 | 0.00 | 72 | 1014.5 |
| 20260507033216 | 5 | 0.0 | 3.2 | 0.00 | 0.00 | 0.00 | 72 | 1014.3 | |
| 20260507032236 | 5 | 0.0 | 0.0 | 0.00 | 0.00 | 0.00 | 72 | 1014.3 | |
| 20260507031216 | 5 | 315 | 1.6 | 3.2 | 0.00 | 0.00 | 0.00 | 72 | 1014.1 |
| 20260507030216 | 5 | 293 | 1.6 | 3.2 | 0.00 | 0.00 | 0.00 | 72 | 1014.0 |
| 20260507025216 | 5 | 0.0 | 1.6 | 0.00 | 0.00 | 0.00 | 72 | 1013.8 | |
| 20260507024216 | 5 | 0.0 | 1.6 | 0.00 | 0.00 | 0.00 | 72 | 1013.7 | |
| 20260507023216 | 5 | 0.0 | 1.6 | 0.00 | 0.00 | 0.00 | 71 | 1014.1 | |
| 20260507022216 | 5 | 0.0 | 1.6 | 0.00 | 0.00 | 0.00 | 71 | 1014.0 | |
| 20260507021216 | 5 | 0.0 | 3.2 | 0.00 | 0.00 | 0.00 | 71 | 1013.9 | |
| 20260507020216 | 6 | 135 | 1.6 | 4.8 | 0.00 | 0.00 | 0.00 | 70 | 1013.9 |
| 20260507015216 | 6 | 0.0 | 1.6 | 0.00 | 0.00 | 0.00 | 69 | 1013.8 | |
| 20260507014216 | 6 | 248 | 1.6 | 1.6 | 0.00 | 0.00 | 0.00 | 69 | 1013.4 |
| 20260507013216 | 6 | 180 | 1.6 | 4.8 | 0.00 | 0.00 | 0.00 | 68 | 1013.4 |
| 20260507012216 | 6 | 0.0 | 1.6 | 0.00 | 0.00 | 0.00 | 68 | 1013.4 | |
| 20260507010236 | 6 | 0.0 | 0.0 | 0.00 | 0.00 | 0.00 | 67 | 1013.7 | |
| 20260507005216 | 6 | 0.0 | 1.6 | 0.00 | 0.00 | 0.00 | 66 | 1013.8 | |
| 20260507004215 | 6 | 315 | 1.6 | 3.2 | 0.00 | 0.00 | 0.00 | 66 | 1013.8 |
| 20260507003216 | 6 | 0.0 | 0.0 | 0.00 | 0.00 | 0.00 | 67 | 1013.7 | |
| 20260507002216 | 6 | 0.0 | 0.0 | 0.00 | 0.00 | 0.00 | 67 | 1014.0 | |
| 20260507001215 | 6 | 0.0 | 0.0 | 0.00 | 0.00 | 0.00 | 65 | 1014.1 | |
| 20260507000216 | 6 | 0.0 | 1.6 | 0.00 | 0.00 | 0.00 | 64 | 1014.0 | |
| 20260506235256 | 6 | 0.0 | 1.6 | 0.00 | 0.00 | 0.00 | 64 | 1013.9 | |
| 20260506234256 | 6 | 0.0 | 3.2 | 0.00 | 0.00 | 0.00 | 63 | 1014.0 | |
| 20260506233236 | 6 | 0.0 | 0.0 | 0.00 | 0.00 | 0.00 | 63 | 1014.0 | |
| 20260506232216 | 6 | 0.0 | 1.6 | 0.00 | 0.00 | 0.00 | 63 | 1013.8 | |
| 20260506231215 | 7 | 23 | 1.6 | 3.2 | 0.00 | 0.00 | 0.00 | 62 | 1013.6 |
| 20260506230235 | 7 | 23 | 1.6 | 3.2 | 0.00 | 0.00 | 0.00 | 62 | 1013.9 |
| 20260506225216 | 7 | 113 | 6.4 | 9.7 | 0.00 | 0.00 | 0.00 | 62 | 1014.0 |
| 20260506224238 | 7 | 0.0 | 4.8 | 0.00 | 0.00 | 0.00 | 63 | 1013.7 | |
| 20260506223258 | 7 | 90 | 1.6 | 6.4 | 0.00 | 0.00 | 0.00 | 62 | 1013.9 |
| 20260506222217 | 7 | 135 | 6.4 | 8.0 | 0.00 | 0.00 | 0.00 | 62 | 1013.9 |
| 20260506221217 | 7 | 113 | 11.3 | 24.1 | 0.00 | 0.00 | 0.00 | 60 | 1013.9 |
| 20260506220217 | 7 | 90 | 9.7 | 16.1 | 0.00 | 0.00 | 0.00 | 59 | 1014.0 |
| 20260506215217 | 7 | 135 | 11.3 | 17.7 | 0.00 | 0.00 | 0.00 | 59 | 1014.1 |
| 20260506214217 | 7 | 113 | 11.3 | 14.5 | 0.00 | 0.00 | 0.00 | 59 | 1014.0 |
| 20260506213217 | 7 | 113 | 12.9 | 16.1 | 0.00 | 0.00 | 0.00 | 59 | 1014.3 |
| 20260506212217 | 7 | 113 | 4.8 | 9.7 | 0.00 | 0.00 | 0.00 | 60 | 1014.2 |
| 20260506211217 | 7 | 135 | 8.0 | 11.3 | 0.00 | 0.00 | 0.00 | 61 | 1014.3 |
| 20260506210217 | 7 | 135 | 3.2 | 4.8 | 0.00 | 0.00 | 0.00 | 61 | 1014.4 |
| 20260506205216 | 7 | 0.0 | 0.0 | 0.00 | 0.00 | 0.00 | 62 | 1014.1 | |
| 20260506204216 | 7 | 0.0 | 4.8 | 0.00 | 0.00 | 0.00 | 61 | 1014.1 | |
| 20260506203236 | 7 | 0.0 | 1.6 | 0.00 | 0.00 | 0.00 | 60 | 1013.9 | |
| 20260506202216 | 7 | 0.0 | 1.6 | 0.00 | 0.00 | 0.00 | 60 | 1013.7 | |
| 20260506201216 | 8 | 0 | 1.6 | 3.2 | 0.00 | 0.00 | 0.00 | 59 | 1013.6 |
| 20260506200216 | 8 | 0.0 | 0.0 | 0.00 | 0.00 | 0.00 | 58 | 1013.6 | |
| 20260506195216 | 8 | 0.0 | 1.6 | 0.00 | 0.00 | 0.00 | 58 | 1013.7 | |
| 20260506194216 | 8 | 0.0 | 1.6 | 0.00 | 0.00 | 0.00 | 57 | 1013.7 | |
| 20260506193256 | 8 | 45 | 1.6 | 1.6 | 0.00 | 0.00 | 0.00 | 55 | 1013.8 |
| 20260506192216 | 8 | 0.0 | 1.6 | 0.00 | 0.00 | 0.00 | 54 | 1013.7 | |
| 20260506191215 | 8 | 0.0 | 3.2 | 0.00 | 0.00 | 0.00 | 52 | 1013.5 | |
| 20260506190216 | 8 | 0.0 | 3.2 | 0.00 | 0.00 | 0.00 | 50 | 1013.4 | |
| 20260506185216 | 8 | 0.0 | 3.2 | 0.00 | 0.00 | 0.00 | 49 | 1013.3 | |
| 20260506184215 | 8 | 90 | 1.6 | 3.2 | 0.00 | 0.00 | 0.00 | 48 | 1013.3 |
| 20260506183216 | 8 | 45 | 3.2 | 8.0 | 0.00 | 0.00 | 0.00 | 48 | 1013.4 |
| 20260506182216 | 8 | 0.0 | 1.6 | 0.00 | 0.00 | 0.00 | 50 | 1013.5 | |
| 20260506181216 | 8 | 0.0 | 0.0 | 0.00 | 0.00 | 0.00 | 48 | 1013.5 | |
| 20260506180215 | 8 | 0.0 | 1.6 | 0.00 | 0.00 | 0.00 | 48 | 1013.5 | |
| 20260506175216 | 9 | 0.0 | 1.6 | 0.00 | 0.00 | 0.00 | 47 | 1013.7 | |
| 20260506174236 | 9 | 113 | 1.6 | 3.2 | 0.00 | 0.00 | 0.00 | 46 | 1013.7 |
| 20260506173215 | 9 | 113 | 1.6 | 4.8 | 0.00 | 0.00 | 0.00 | 44 | 1013.7 |
| 20260506172216 | 9 | 135 | 1.6 | 6.4 | 0.00 | 0.00 | 0.00 | 44 | 1013.7 |
| 20260506171216 | 10 | 113 | 3.2 | 6.4 | 0.00 | 0.00 | 0.00 | 46 | 1013.8 |
| 20260506170216 | 10 | 113 | 1.6 | 3.2 | 0.00 | 0.00 | 0.00 | 46 | 1013.7 |
| 20260506165215 | 10 | 90 | 4.8 | 9.7 | 0.00 | 0.00 | 0.00 | 44 | 1013.6 |
| 20260506164218 | 10 | 23 | 3.2 | 8.0 | 0.00 | 0.00 | 0.00 | 44 | 1013.4 |
| 20260506163217 | 10 | 113 | 1.6 | 4.8 | 0.00 | 0.00 | 0.00 | 45 | 1013.4 |
| 20260506162215 | 10 | 45 | 3.2 | 6.4 | 0.00 | 0.00 | 0.00 | 45 | 1013.3 |
| 20260506161218 | 10 | 113 | 6.4 | 14.5 | 0.00 | 0.00 | 0.00 | 46 | 1013.4 |
| 20260506160217 | 11 | 90 | 4.8 | 11.3 | 0.00 | 0.00 | 0.00 | 44 | 1013.4 |
| 20260506155217 | 11 | 23 | 1.6 | 3.2 | 0.00 | 0.00 | 0.00 | 45 | 1013.3 |
| 20260506154217 | 11 | 90 | 1.6 | 3.2 | 0.00 | 0.00 | 0.00 | 46 | 1013.4 |
| 20260506153237 | 11 | 90 | 1.6 | 4.8 | 0.00 | 0.00 | 0.00 | 44 | 1013.5 |
| 20260506152217 | 12 | 23 | 1.6 | 3.2 | 0.00 | 0.00 | 0.00 | 43 | 1013.7 |
| 20260506151217 | 12 | 0.0 | 1.6 | 0.00 | 0.00 | 0.00 | 42 | 1013.7 | |
| 20260506150217 | 12 | 68 | 1.6 | 1.6 | 0.00 | 0.00 | 0.00 | 43 | 1013.8 |
| 20260506145217 | 12 | 0 | 3.2 | 6.4 | 0.00 | 0.00 | 0.00 | 37 | 1014.0 |
| 20260506144237 | 12 | 315 | 1.6 | 4.8 | 0.00 | 0.00 | 0.00 | 41 | 1014.2 |
| 20260506143217 | 12 | 0.0 | 3.2 | 0.00 | 0.00 | 0.00 | 42 | 1014.2 | |
| 20260506142217 | 12 | 68 | 3.2 | 8.0 | 0.00 | 0.00 | 0.00 | 39 | 1014.3 |
| 20260506141217 | 13 | 0.0 | 1.6 | 0.00 | 0.00 | 0.00 | 38 | 1014.3 | |
| 20260506140217 | 13 | 23 | 4.8 | 6.4 | 0.00 | 0.00 | 0.00 | 38 | 1014.3 |
| 20260506135217 | 13 | 90 | 1.6 | 3.2 | 0.00 | 0.00 | 0.00 | 39 | 1014.3 |
| 20260506134217 | 12 | 113 | 3.2 | 8.0 | 0.00 | 0.00 | 0.00 | 40 | 1014.2 |
| 20260506133217 | 13 | 68 | 1.6 | 3.2 | 0.00 | 0.00 | 0.00 | 36 | 1014.2 |
| 20260506132217 | 13 | 113 | 4.8 | 6.4 | 0.00 | 0.00 | 0.00 | 37 | 1014.3 |
| 20260506131237 | 12 | 113 | 3.2 | 8.0 | 0.00 | 0.00 | 0.00 | 36 | 1014.3 |
| 20260506130217 | 12 | 113 | 1.6 | 9.7 | 0.00 | 0.00 | 0.00 | 35 | 1014.3 |
| 20260506125217 | 13 | 90 | 3.2 | 6.4 | 0.00 | 0.00 | 0.00 | 33 | 1014.3 |
| 20260506124217 | 12 | 23 | 6.4 | 11.3 | 0.00 | 0.00 | 0.00 | 39 | 1014.2 |
| 20260506123217 | 11 | 135 | 8.0 | 12.9 | 0.00 | 0.00 | 0.00 | 39 | 1014.2 |
| 20260506122257 | 12 | 90 | 1.6 | 6.4 | 0.00 | 0.00 | 0.00 | 40 | 1014.3 |
| 20260506121217 | 12 | 135 | 4.8 | 8.0 | 0.00 | 0.00 | 0.00 | 37 | 1014.5 |
| 20260506120217 | 12 | 293 | 9.7 | 14.5 | 0.00 | 0.00 | 0.00 | 38 | 1014.5 |
| 20260506115257 | 12 | 113 | 8.0 | 11.3 | 0.00 | 0.00 | 0.00 | 40 | 1014.5 |
| 20260506114217 | 12 | 113 | 4.8 | 8.0 | 0.00 | 0.00 | 0.00 | 38 | 1014.6 |
| 20260506113237 | 12 | 135 | 4.8 | 9.7 | 0.00 | 0.00 | 0.00 | 40 | 1014.7 |
| 20260506112217 | 11 | 315 | 4.8 | 8.0 | 0.00 | 0.00 | 0.00 | 38 | 1014.7 |
| 20260506111216 | 11 | 315 | 17.7 | 20.9 | 0.00 | 0.00 | 0.00 | 40 | 1014.6 |
| 20260506110217 | 11 | 248 | 1.6 | 6.4 | 0.00 | 0.00 | 0.00 | 40 | 1014.9 |
| 20260506105216 | 11 | 203 | 3.2 | 8.0 | 0.00 | 0.00 | 0.00 | 44 | 1014.8 |
| 20260506104217 | 11 | 180 | 1.6 | 4.8 | 0.00 | 0.00 | 0.00 | 39 | 1014.8 |
| 20260506103217 | 11 | 293 | 6.4 | 12.9 | 0.00 | 0.00 | 0.00 | 39 | 1014.9 |
| 20260506102217 | 11 | 293 | 11.3 | 16.1 | 0.00 | 0.00 | 0.00 | 42 | 1015.0 |
| 20260506101216 | 11 | 158 | 1.6 | 3.2 | 0.00 | 0.00 | 0.00 | 42 | 1014.9 |
| 20260506100216 | 11 | 315 | 12.9 | 16.1 | 0.00 | 0.00 | 0.00 | 42 | 1015.0 |
| 20260506095216 | 11 | 338 | 1.6 | 4.8 | 0.00 | 0.00 | 0.00 | 40 | 1015.1 |
| 20260506094217 | 11 | 315 | 3.2 | 6.4 | 0.00 | 0.00 | 0.00 | 42 | 1015.1 |